St. Johns, AZ

4:23 PM MST on March 27, 2017 (GMT -0700)
Saint Johns Industrial

Weather History for KSJN - February, 2012

Change the Weather History Date:

Tuesday, February 7, 2012

  Actual Average (KLSB) Record (KLSB)
Temperature  
Mean Temperature 35 °F -  
Max Temperature 51 °F 61 °F 71 °F (2015)
Min Temperature 19 °F 26 °F 19 °F (2016)
Degree Days  
Heating Degree Days 30    
Moisture  
Dew Point 12 °F    
Average Humidity 47    
Maximum Humidity 81    
Minimum Humidity 15    
Precipitation  
Precipitation 0.00 in - - ()
Sea Level Pressure  
Sea Level Pressure 30.14 in    
Wind  
Wind Speed 2 mph (NE)    
Max Wind Speed 13 mph    
Max Gust Speed -    
Visibility 10 miles    
Events      
Averages and records for this station are not official NWS values.
T = Trace of Precipitation, MM = Missing Value Source: NWS Daily Summary

Daily Weather History Graph

Daily Weather History Graph

Search for Another Location

Airport or City:

Trip Planner

Search our weather history database for the weather conditions in past years. The results will help you decide how hot, cold, wet, or windy it might be!

Date:

Astronomy

Feb. 07, 2012 Rise Set
Actual Time 7:10 AM MST 5:52 PM MST
Civil Twilight 6:44 AM MST 6:18 PM MST
Nautical Twilight 6:15 AM MST 6:48 PM MST
Astronomical Twilight 5:45 AM MST 7:18 PM MST
Moon 6:04 PM MST (2/7) 6:43 AM MST (2/7)
Length of Visible Light 11h 34m
Length of Day
10h 41m
Full, 100% of the Moon is Illuminated
Feb 7
Full
Feb 7
Full
Feb 14
Last Quarter
Feb 21
New
Feb 29
First Quarter

Hourly Weather History & Observations

Time (MST) Temp. Windchill Dew Point Humidity Pressure Visibility Wind Dir Wind Speed Gust Speed Precip Events Conditions
12:54 AM 27.0 °F - 16.0 °F 63% 30.10 in 10.0 mi Calm Calm - N/A   Clear
1:54 AM 24.1 °F - 14.0 °F 65% 30.10 in 10.0 mi Calm Calm - N/A   Clear
2:54 AM 21.0 °F 16.2 °F 12.9 °F 71% 30.11 in 10.0 mi West 3.5 mph - N/A   Clear
3:54 AM 21.0 °F - 14.0 °F 74% 30.12 in 10.0 mi Calm Calm - N/A   Clear
4:54 AM 21.9 °F - 16.0 °F 78% 30.14 in 10.0 mi Calm Calm - N/A   Clear
5:54 AM 21.0 °F - 15.1 °F 78% 30.17 in 10.0 mi Calm Calm - N/A   Clear
6:54 AM 19.0 °F - 14.0 °F 81% 30.22 in 10.0 mi Calm Calm - N/A   Clear
7:54 AM 21.0 °F - 14.0 °F 74% 30.24 in 5.0 mi Calm Calm - N/A   Haze
8:54 AM 26.1 °F - 17.1 °F 69% 30.22 in 10.0 mi Calm Calm - N/A   Clear
9:54 AM 30.0 °F - 18.0 °F 61% 30.21 in 10.0 mi Calm Calm - N/A   Clear
10:54 AM 37.0 °F - 19.0 °F 48% 30.18 in 10.0 mi Calm Calm - N/A   Clear
11:54 AM 45.0 °F 39.3 °F 17.1 °F 33% 30.14 in 10.0 mi ENE 11.5 mph - N/A   Clear
12:54 PM 46.9 °F - 12.9 °F 25% 30.10 in 10.0 mi East 12.7 mph - N/A   Clear
1:54 PM 48.0 °F - 10.0 °F 22% 30.09 in 10.0 mi ESE 8.1 mph - N/A   Clear
2:54 PM 50.0 °F - 7.0 °F 18% 30.08 in 10.0 mi ENE 5.8 mph - N/A   Mostly Cloudy
3:54 PM 51.1 °F - 3.9 °F 15% 30.08 in 10.0 mi NNE 4.6 mph - N/A   Clear
4:54 PM 50.0 °F - 5.0 °F 16% 30.07 in 10.0 mi NNE 4.6 mph - N/A   Clear
5:54 PM 46.9 °F - 7.0 °F 20% 30.09 in 10.0 mi North 4.6 mph - N/A   Clear
6:54 PM 39.9 °F - 5.0 °F 23% 30.14 in 10.0 mi Calm Calm - N/A   Clear
7:54 PM 42.1 °F 40.2 °F 12.0 °F 29% 30.14 in 10.0 mi East 3.5 mph - N/A   Clear
8:54 PM 37.0 °F 34.5 °F 12.9 °F 37% 30.15 in 10.0 mi ESE 3.5 mph - N/A   Scattered Clouds
9:54 PM 34.0 °F - 10.0 °F 37% 30.16 in 10.0 mi Calm Calm - N/A   Clear
10:54 PM 28.9 °F - 10.0 °F 45% 30.15 in 10.0 mi Calm Calm - N/A   Clear
11:54 PM 30.0 °F 24.1 °F 10.9 °F 45% 30.12 in 10.0 mi West 5.8 mph - N/A   Partly Cloudy